Location: Coffee Ditch
(40.9640°N, 122.7500°W)
Time: 01:58:01
(UTC+00:00)

Cosmos 1602 Rocket - Pass Details

Date: 18 December 2025
Orbit: 596 x 626 km, 82.5° (Epoch: 16 January)

Event Time Altitude Azimuth Distance (km) Brightness Sun altitude
Rises 14:54:14 0° 238° (WSW) 2,902 6.7 -6.9°
Reaches altitude 10° 14:58:05 10° 273° (W) 2,000 5.6 -6.3°
Maximum altitude 14:59:31 11° 292° (WNW) 1,908 5.4 -6.0°
Drops below altitude 10° 15:00:58 10° 311° (NW) 2,001 5.6 -5.8°
Sets 15:04:51 0° 346° (NNW) 2,909 6.6 -5.1°
